Home > Time Zones > World Clock > Weather > Ghana > Accra > Past weeks

Flag for Ghana Weather past 2 weeks in Accra, Ghana

Now
77 °F

Partly sunny.


Feels Like: 78 °F
Forecast: 75 / 84 °F
Wind: 9 mph from Southwest

Location: Accra Airport

Current Time: Aug 3, 2015 at 9:10:55 AM

Latest Report: Aug 3, 2015 at 7:50 AM


Visibility: N/A

Pressure: 29.98 "Hg

Humidity: 89%

Dew point: 73 °F

Location of AccraLocation

Historic Weather in Accra — Graph

°F

Accra temperature yesterday

Maximum temperature yesterday: 84 °F (at 2:00 PM)
Minimum temperature yesterday: 75 °F (at 1:00 AM)
Average temperature yesterday: 77 °F

Past Weeks' High & Low Weather Summary

 TemperatureHumidityPressure
High84 °F (Jul 22, 12:00 PM)94% (Jul 20, 5:00 AM)30.07 "Hg (Jul 20, 5:00 AM)
Low72 °F (Jul 29, 1:54 AM)62% (Jul 27, 12:00 PM)29.86 "Hg (Aug 1, 5:00 PM)
Average77 °F84%29.96 "Hg
* Reported Jul 19 7:00 AM — Aug 3 7:00 AM, Accra, Weather by CustomWeather, © 2015

Note: Actual official high and low records may vary slightly from our data, if they occured in-between our weather recording intervals... More about our weather records

Advertising

Accra weather history for previous 24 hours

 ConditionsComfort  
Time TempWeatherWind HumidityBarometerVisibility
7:00 AM
Mon, Aug 3
75 °FPartly sunny.7 mph94%29.98 "HgN/A
6:00 AM75 °FPartly sunny.10 mph94%29.95 "HgN/A
4:00 AM75 °FPassing clouds.9 mph94%29.95 "HgN/A
3:00 AM75 °FPassing clouds.15 mph94%29.95 "HgN/A
2:00 AM75 °FPartly cloudy.12 mph94%29.95 "HgN/A
1:00 AM75 °FPassing clouds.12 mph94%29.95 "HgN/A
12:00 AM75 °FLow clouds.14 mph94%29.95 "HgN/A
11:00 PM
Sun, Aug 2
75 °FLow clouds.14 mph94%29.95 "HgN/A
10:00 PM75 °FPassing clouds.15 mph94%29.95 "HgN/A
9:00 PM75 °FPassing clouds.15 mph94%29.95 "HgN/A
8:00 PM75 °FPassing clouds.16 mph94%29.92 "HgN/A
7:00 PM77 °FPassing clouds.15 mph89%29.92 "HgN/A
6:00 PM77 °FSunny.15 mph89%29.89 "Hg10 mi
5:00 PM79 °FSunny.17 mph79%29.89 "Hg10 mi
4:00 PM81 °FSunny.16 mph74%29.89 "Hg10 mi
3:00 PM82 °FSunny.16 mph70%29.89 "Hg10 mi
2:00 PM84 °FSunny.14 mph70%29.92 "Hg10 mi
1:00 PM82 °FSunny.12 mph74%29.92 "Hg10 mi
10:00 AM79 °FPartly sunny.7 mph84%29.98 "HgN/A
9:00 AM79 °FPartly sunny.9 mph79%29.98 "HgN/A
Weather by CustomWeather, © 2015

See weather overviewHow to use our weather pages